Regional Weather Roundup
Issued by NWS Green Bay, WI

Home | Current Version | Previous Version | Text Only | Print | Product List | Glossary On
Versions: 1 2 3 4 5 6 7 8 9 10 11 12 13 14 15 16 17 18 19 20 21 22 23 24 25 26 27 28 29 30 31 32 33 34 35 36 37 38 39 40 41 42 43 44 45 46 47 48 49 50
000
ASUS43 KGRB 301100
RWRGRB

NORTH-CENTRAL AND NORTHEAST WISCONSIN REGIONAL WEATHER ROUNDUP
NATIONAL WEATHER SERVICE GREEN BAY WI
600 AM CDT THU JUL 30 2015

WIZ005-009-010>012-018-019-301200-
NORTH CENTRAL WISCONSIN

CITY           SKY/WX    TMP DP  RH WIND       PRES   REMARKS
IRONWOOD       CLEAR     63  54  72 W14       29.87R
MANITOWISH WTR NOT AVBL
ARBOR VITAE    NOT AVBL
EAGLE RIVER    NOT AVBL
LAND O LAKES   NOT AVBL
RHINELANDER    CLEAR     60  53  77 W10       29.94R
PHILLIPS       CLEAR     59  55  85 W5        29.95R
ANTIGO         NOT AVBL
TOMAHAWK       NOT AVBL
MERRILL        NOT AVBL
$$

WIZ013-073-301200-
NORTHEAST WISCONSIN

CITY           SKY/WX    TMP DP  RH WIND       PRES   REMARKS
IRON MOUNTAIN  CLEAR     65  53  65 W7        29.85R
MARINETTE      CLEAR     64  52  63 W6        29.87S
$$

WIZ017-030-035>037-045-301200-
CENTRAL WISCONSIN

CITY           SKY/WX    TMP DP  RH WIND       PRES   REMARKS
MEDFORD        NOT AVBL
WAUSAU         CLEAR     64  55  72 NW9       29.95R
MOSINEE        CLEAR     61  55  82 W8        29.99R
MARSHFIELD     CLEAR     60  53  77 W7        29.99R
WISC RAPIDS    CLEAR     63  53  70 W7        30.00R
STEVENS POINT  NOT AVBL
WAUPACA        NOT AVBL
SHAWANO        NOT AVBL
CLINTONVILLE   CLEAR     63  54  72 W8        29.94S
$$

WIZ038-039-048-051-301200-
FOX VALLEY

CITY           SKY/WX    TMP DP  RH WIND       PRES   REMARKS
NWS GREEN BAY  CLEAR     65  55  70 W12       29.93R
APPLETON       CLEAR     61  54  77 W6        29.96S
OSHKOSH        CLEAR     66  54  65 W7        29.97R
FOND DU LAC    CLEAR     64  55  72 W9        29.98R
$$

WIZ022-050-052-301200-
EAST CENTRAL WISCONSIN

CITY           SKY/WX    TMP DP  RH WIND       PRES   REMARKS
STURGEON BAY   CLEAR     66  54  63 W13G20    29.91S
MANITOWOC      NOT AVBL
SHEBOYGAN      CLEAR     66  55  67 W12       29.96R
$$

LMZ563-521-522-541>543-301200-
LAKESHORE

STATION/POSITION TIME  TEMP    WIND        PRES    VSBY  WAVE
                       AIR SEA DIR/SP/G                  HT/PER
                 (UTC) (F)     (DEG/KT/KT) (MB)    (MI)  (FT/S)
SHEBOYGAN LKSHOR 1000   70     260/ 11/ 14 1013.9R
ALGOMA MARINA    1012          240/  7/ 12   N/A
NORTHPORT PIER   1000   70     250/  7/ 13 1010.5R
N MID LAKE BUOY  0950   71 69  260/ 19/ 23 1009.0R         3/ 4
S GREEN BAY BUOY 1000   65 65  240/ 12/ 16 1013.5R
SISTER BAY LKSHO 1014   70     320/ 21/ 28   N/A
CHAMBERS ISLAND  1000   67     220/  8/ 15 1010.8S
$$



USA.gov is the U.S. government's official web portal to all federal, state and local government web resources and services.